Weather History for Beaumont, TX

Change the Weather History Date:

Friday, August 16, 2013

  Actual Average Record
Temperature  
Mean Temperature 84 °F 83 °F  
Max Temperature 95 °F 92 °F 103 °F (1925)
Min Temperature 73 °F 74 °F 64 °F (1963)
Degree Days  
Heating Degree Days 0 0  
Month to date heating degree days 0 0  
Since 1 June heating degree days 0 0  
Since 1 July heating degree days 0 0  
Cooling Degree Days 19 18  
Month to date cooling degree days 317 288  
Year to date cooling degree days 1909 1894  
Since 1 June cooling degree days 1422 1328  
Growing Degree Days 34 (Base 50)    
Moisture  
Dew Point 70 °F    
Average Humidity 67    
Maximum Humidity 94    
Minimum Humidity 39    
Precipitation  
Precipitation 0.00 in 0.16 in 1.99 in (1934)
Month to date precipitation 0.24 2.64  
Year to date precipitation 34.49 36.49  
Snow  
Snow 0.00 in 0.00 in 0.00 in ()
Month to date snowfall 0.0 0.0  
Since 1 June snowfall 0.0 0.0  
Since 1 July snowfall 0.0 0.0  
Snow Depth 0.00 in    
Sea Level Pressure  
Sea Level Pressure 29.95 in    
Wind  
Wind Speed 4 mph (NNE)    
Max Wind Speed 13 mph    
Max Gust Speed 35 mph    
Visibility 8 miles    
Events      
T = Trace of Precipitation, MM = Missing Value Source: NWS Daily Summary

Daily Weather History Graph

Daily Weather History Graph

Search for Another Location

Airport:

Trip Planner

Search our weather history database for the weather conditions in past years. The results will help you decide how hot, cold, wet, or windy it might be!

Date:

Astronomy

Aug. 16, 2013 Rise Set
Actual Time 6:44 AM CDT 7:55 PM CDT
Civil Twilight 6:19 AM CDT 8:20 PM CDT
Nautical Twilight 5:49 AM CDT 8:50 PM CDT
Astronomical Twilight 5:18 AM CDT 9:21 PM CDT
Moon 4:07 PM CDT (8/16) 1:55 AM CDT (8/16)
Length of Visible Light 14h 01m
Length of Day
13h 11m
Waxing Gibbous, 75% of the Moon is Illuminated
Aug 16
Waxing Gibbous
Aug 20
Full
Aug 28
Last Quarter
Sep 5
New
Sep 12
First Quarter

Hourly Weather History & Observations

Time (CDT) Temp. Heat Index Dew Point Humidity Pressure Visibility Wind Dir Wind Speed Gust Speed Precip Events Conditions
12:53 AM 75.9 °F - 73.9 °F 94% 29.97 in 5.0 mi Calm Calm - N/A   Mostly Cloudy
1:53 AM 77.0 °F - 73.0 °F 88% 29.96 in 7.0 mi Calm Calm - N/A   Clear
2:53 AM 75.9 °F - 73.9 °F 94% 29.95 in 6.0 mi Calm Calm - N/A   Clear
3:53 AM 77.0 °F - 73.9 °F 90% 29.94 in 6.0 mi Calm Calm - N/A   Clear
4:53 AM 75.9 °F - 73.0 °F 91% 29.95 in 6.0 mi North 4.6 mph - N/A   Clear
5:53 AM 73.9 °F - 72.0 °F 93% 29.94 in 5.0 mi Calm Calm - N/A   Clear
6:53 AM 73.9 °F - 72.0 °F 93% 29.96 in 4.0 mi North 5.8 mph - N/A   Clear
7:53 AM 75.9 °F - 70.0 °F 82% 29.98 in 7.0 mi NNE 4.6 mph - N/A   Clear
8:53 AM 79.0 °F - 70.0 °F 74% 29.99 in 8.0 mi NNE 6.9 mph - N/A   Clear
9:53 AM 84.0 °F 88.4 °F 70.0 °F 63% 29.98 in 9.0 mi ENE 3.5 mph - N/A   Clear
10:53 AM 87.1 °F 92.0 °F 70.0 °F 57% 29.99 in 10.0 mi Calm Calm - N/A   Clear
11:53 AM 89.1 °F 94.1 °F 70.0 °F 53% 29.98 in 10.0 mi WNW 5.8 mph - N/A   Partly Cloudy
12:53 PM 90.0 °F 95.4 °F 70.0 °F 52% 29.97 in 9.0 mi NW 5.8 mph - N/A   Mostly Cloudy
1:53 PM 93.9 °F 97.5 °F 66.9 °F 41% 29.95 in 10.0 mi Variable 5.8 mph - N/A   Mostly Cloudy
2:53 PM 93.9 °F 97.5 °F 66.9 °F 41% 29.93 in 10.0 mi Variable 4.6 mph - N/A   Mostly Cloudy
3:53 PM 91.9 °F 95.4 °F 66.9 °F 44% 29.91 in 10.0 mi North 8.1 mph - N/A   Mostly Cloudy
4:53 PM 93.9 °F 96.1 °F 64.9 °F 38% 29.91 in 10.0 mi Variable 4.6 mph - N/A   Mostly Cloudy
5:53 PM 91.9 °F 94.5 °F 66.0 °F 42% 29.90 in 10.0 mi ESE 6.9 mph - N/A   Mostly Cloudy
6:53 PM 89.1 °F 91.3 °F 66.0 °F 46% 29.91 in 10.0 mi NE 6.9 mph - N/A   Scattered Clouds
7:53 PM 82.9 °F 88.8 °F 73.0 °F 72% 29.92 in 10.0 mi SSW 3.5 mph - N/A   Partly Cloudy
8:53 PM 82.0 °F 87.4 °F 73.0 °F 74% 29.94 in 10.0 mi Calm Calm - N/A   Clear
9:53 PM 79.0 °F - 73.9 °F 84% 29.96 in 9.0 mi Calm Calm - N/A   Clear
10:53 PM 80.1 °F 84.5 °F 73.9 °F 81% 29.97 in 9.0 mi Calm Calm - N/A   Clear
11:53 PM 82.0 °F 84.9 °F 68.0 °F 62% 29.98 in 10.0 mi NNE 4.6 mph - N/A   Clear